User: anonymous   Login
Location: Albany
(35.0000°S, 118.0000°E)
Time: 19:20:23
(UTC-05:00)
Language:

Cosmos 1933 - Orbit

View from above orbital plane
View from above orbital plane
View from above satellite
View from above satellite

Ground track
Ground track

The orbit data is extracted from the following two-line orbital elements,

1 18958U 88020A   15024.55578881  .00001510  00000-0  11436-3 0  5337
2 18958 082.5283 227.0376 0012390 021.3886 338.7854 15.01544163460188
Epoch (UTC): 24 January 2015 13:20:20
Eccentricity: 0.0012390
inclination: 82.5283°
perigee height: 553 km
apogee height: 571 km
right ascension of ascending node: 227.0376°
argument of perigee: 21.3886°
revolutions per day: 15.01544163
mean anomaly at epoch: 338.7854°
orbit number at epoch: 46018

The dashed part of the orbit path shows where the satellite is in the earth's shadow,  

DLR